Location: Bretagne
(43.8474°N, 0.4650°W)
Time: 07:09:37
(UTC+00:00)

ISS - Pass Details

Date: 15 January 2026
Orbit: 413 x 429 km, 51.6° (Epoch: 10 February)

Event Time Altitude Azimuth Distance (km) Brightness Sun altitude
Rises 17:22:31 0° 225° (SW) 2,345 1.6 -6.1°
Reaches altitude 10° 17:24:37 10° 221° (SW) 1,488 0.2 -6.4°
Maximum altitude 17:27:53 53° 143° (SE) 519 -3.4 -7.0°
Drops below altitude 10° 17:31:11 10° 65° (ENE) 1,507 -1.6 -7.5°
Enters shadow 17:31:12 10° 65° (ENE) 1,513 -1.6 -7.5°
